WA6OOO Weather Reports


Display with metric or nautical units.
time (UTC)temp
F
wind
direction
speed
MPH
gust
MPH
rain 1hr
in
rain 24hr
in
rain mn
in
humidity
%
barometer
mb
20260507013356 64 248 3.0 4.0 0.00 0.00 0.00 73 1018.8
20260507012853 64 201 2.0 6.0 0.00 0.00 0.00 71 1018.7
20260507012350 65 210 2.0 3.0 0.00 0.00 0.00 70 1018.8
20260507011847 65 202 3.0 4.0 0.00 0.00 0.00 70 1018.9
20260507011344 66 243 2.0 6.0 0.00 0.00 0.00 69 1018.8
20260507010843 66 209 2.0 4.0 0.00 0.00 0.00 69 1018.7
20260507010339 66 215 5.0 7.0 0.00 0.00 0.00 68 1018.9
20260507005836 66 234 1.0 7.0 0.00 0.00 0.00 67 1019.0
20260507005333 66 225 2.0 6.0 0.00 0.00 0.00 68 1018.9
20260507004830 66 226 4.0 7.0 0.00 0.00 0.00 68 1018.8
20260507004327 66 265 2.0 8.0 0.00 0.00 0.00 68 1019.0
20260507003824 66 209 3.0 7.0 0.00 0.00 0.00 67 1019.1
20260507003319 66 201 3.0 6.0 0.00 0.00 0.00 68 1019.0
20260507002815 66 215 4.0 7.0 0.00 0.00 0.00 66 1018.9
20260507002311 66 222 3.0 4.0 0.00 0.00 0.00 65 1018.9
20260507001809 66 238 1.0 6.0 0.00 0.00 0.00 64 1019.1
20260507001306 66 207 4.0 8.0 0.00 0.00 0.00 63 1019.1
20260507000802 66 218 2.0 10.0 0.00 0.00 0.00 64 1019.1
20260507000259 66 218 5.0 7.0 0.00 0.00 0.00 63 1018.9
20260506235754 66 182 3.0 7.0 0.00 0.00 0.00 62 1019.0
20260506235250 67 179 4.0 7.0 0.00 0.00 0.00 62 1018.9
20260506234747 66 217 4.0 7.0 0.00 0.00 0.00 63 1019.2
20260506234244 66 218 3.0 7.0 0.00 0.00 0.00 62 1019.0
20260506233742 67 211 4.0 8.0 0.00 0.00 0.00 62 1019.1
20260506233238 67 216 3.0 13.0 0.00 0.00 0.00 63 1019.0
20260506232735 67 156 3.0 9.0 0.00 0.00 0.00 61 1019.1
20260506232230 67 246 4.0 8.0 0.00 0.00 0.00 61 1019.0
20260506231727 67 216 6.0 9.0 0.00 0.00 0.00 63 1019.1
20260506231226 68 232 3.0 4.0 0.00 0.00 0.00 62 1019.0
20260506230722 67 269 5.0 7.0 0.00 0.00 0.00 63 1019.2
20260506230219 67 284 4.0 7.0 0.00 0.00 0.00 63 1019.2
20260506225715 68 172 3.0 9.0 0.00 0.00 0.00 63 1019.2
20260506225212 68 187 4.0 7.0 0.00 0.00 0.00 62 1019.4
20260506224709 68 225 2.0 8.0 0.00 0.00 0.00 63 1019.6
20260506224206 67 211 4.0 9.0 0.00 0.00 0.00 64 1019.7
20260506223702 68 276 5.0 6.0 0.00 0.00 0.00 63 1019.6
20260506223158 68 200 3.0 7.0 0.00 0.00 0.00 64 1019.7
20260506222655 68 253 4.0 8.0 0.00 0.00 0.00 62 1019.9
20260506222151 66 198 1.0 7.0 0.00 0.00 0.00 66 1019.9
20260506221649 66 110 4.0 8.0 0.00 0.00 0.00 67 1020.0
20260506221147 67 359 2.0 6.0 0.00 0.00 0.00 65 1020.0
20260506220643 67 184 4.0 9.0 0.00 0.00 0.00 66 1020.2
20260506220138 67 192 2.0 7.0 0.00 0.00 0.00 64 1020.1
20260506215635 68 92 3.0 11.0 0.00 0.00 0.00 64 1020.3
20260506215130 68 245 5.0 7.0 0.00 0.00 0.00 64 1020.3
20260506214628 68 217 2.0 7.0 0.00 0.00 0.00 64 1020.5
20260506214125 67 71 4.0 8.0 0.00 0.00 0.00 65 1020.4
20260506213623 67 245 5.0 9.0 0.00 0.00 0.00 66 1020.4
20260506213120 68 245 4.0 6.0 0.00 0.00 0.00 64 1020.6
20260506212618 67 239 3.0 6.0 0.00 0.00 0.00 66 1020.6
20260506212112 67 197 4.0 7.0 0.00 0.00 0.00 66 1020.6
20260506211608 68 303 3.0 6.0 0.00 0.00 0.00 64 1020.6
20260506211105 67 225 3.0 4.0 0.00 0.00 0.00 64 1020.6
20260506210602 68 217 1.0 7.0 0.00 0.00 0.00 64 1020.7
20260506210058 68 199 2.0 4.0 0.00 0.00 0.00 65 1020.8
20260506205555 67 243 4.0 7.0 0.00 0.00 0.00 65 1020.8
20260506205050 67 210 4.0 9.0 0.00 0.00 0.00 65 1020.8
20260506204549 68 204 4.0 8.0 0.00 0.00 0.00 62 1020.8
20260506204045 67 177 2.0 6.0 0.00 0.00 0.00 61 1020.9
20260506203544 68 199 5.0 6.0 0.00 0.00 0.00 64 1021.0
20260506203040 68 199 6.0 7.0 0.00 0.00 0.00 61 1021.0
20260506202537 68 212 2.0 6.0 0.00 0.00 0.00 62 1021.0
20260506202033 68 180 4.0 7.0 0.00 0.00 0.00 63 1020.8
20260506201532 67 195 4.0 9.0 0.00 0.00 0.00 63 1021.0
20260506201028 67 211 4.0 8.0 0.00 0.00 0.00 64 1021.3
20260506200524 67 220 1.0 4.0 0.00 0.00 0.00 63 1021.3
20260506200021 67 225 4.0 7.0 0.00 0.00 0.00 61 1021.0
20260506195518 68 222 2.0 6.0 0.00 0.00 0.00 62 1021.0
20260506195014 68 230 2.0 6.0 0.00 0.00 0.00 63 1021.5
20260506194512 68 281 5.0 7.0 0.00 0.00 0.00 62 1021.4
20260506194008 67 218 2.0 8.0 0.00 0.00 0.00 64 1021.4
20260506193506 68 191 4.0 8.0 0.00 0.00 0.00 62 1021.5
20260506193002 68 129 3.0 7.0 0.00 0.00 0.00 64 1021.5
20260506192459 67 142 4.0 6.0 0.00 0.00 0.00 65 1021.4
20260506191955 66 197 6.0 8.0 0.00 0.00 0.00 67 1021.3
20260506191452 66 174 4.0 8.0 0.00 0.00 0.00 67 1021.4
20260506190948 67 274 2.0 6.0 0.00 0.00 0.00 65 1021.5
20260506190446 67 229 4.0 4.0 0.00 0.00 0.00 66 1021.3
20260506185942 66 250 4.0 8.0 0.00 0.00 0.00 68 1021.5
20260506185439 67 213 4.0 7.0 0.00 0.00 0.00 67 1021.6
20260506184936 66 219 4.0 7.0 0.00 0.00 0.00 68 1021.5
20260506184433 66 183 3.0 6.0 0.00 0.00 0.00 68 1021.8
20260506183930 66 190 3.0 4.0 0.00 0.00 0.00 68 1021.6
20260506183425 66 211 4.0 7.0 0.00 0.00 0.00 68 1021.5
20260506182923 66 218 2.0 4.0 0.00 0.00 0.00 69 1021.6
20260506182420 66 206 1.0 6.0 0.00 0.00 0.00 69 1021.6
20260506181918 66 211 5.0 7.0 0.00 0.00 0.00 68 1021.8
20260506181415 67 234 4.0 7.0 0.00 0.00 0.00 68 1021.7
20260506180912 67 208 4.0 7.0 0.00 0.00 0.00 67 1021.7
20260506180408 66 232 4.0 6.0 0.00 0.00 0.00 68 1021.7
20260506175905 68 210 6.0 8.0 0.00 0.00 0.00 65 1021.7
20260506175401 67 193 3.0 4.0 0.00 0.00 0.00 66 1021.8
20260506174859 67 306 2.0 8.0 0.00 0.00 0.00 67 1021.8
20260506174356 67 204 1.0 3.0 0.00 0.00 0.00 66 1021.7
20260506173853 67 225 5.0 8.0 0.00 0.00 0.00 67 1021.8
20260506173350 67 209 3.0 6.0 0.00 0.00 0.00 66 1021.7
20260506172847 67 217 1.0 4.0 0.00 0.00 0.00 66 1021.6
20260506172344 66 216 2.0 7.0 0.00 0.00 0.00 68 1021.7
20260506171841 66 238 3.0 7.0 0.00 0.00 0.00 67 1021.9
20260506171338 66 216 2.0 4.0 0.00 0.00 0.00 67 1021.6
20260506170836 66 216 2.0 3.0 0.00 0.00 0.00 64 1021.6
20260506170332 65 224 1.0 3.0 0.00 0.00 0.00 65 1021.6
20260506165831 65 217 3.0 6.0 0.00 0.00 0.00 65 1021.5
20260506165329 65 215 3.0 4.0 0.00 0.00 0.00 65 1021.6
20260506164825 66 247 1.0 4.0 0.00 0.00 0.00 67 1021.7
20260506164322 66 241 2.0 3.0 0.00 0.00 0.00 66 1021.5
20260506163819 66 195 2.0 4.0 0.00 0.00 0.00 66 1021.6
20260506163313 65 202 0.0 2.0 0.00 0.00 0.00 68 1021.6
20260506162810 64 211 2.0 7.0 0.00 0.00 0.00 69 1021.6
20260506162308 64 209 0.0 2.0 0.00 0.00 0.00 67 1021.5
20260506161804 63 198 1.0 6.0 0.00 0.00 0.00 68 1021.7
20260506161302 64 195 2.0 6.0 0.00 0.00 0.00 67 1021.6
20260506160800 64 220 2.0 3.0 0.00 0.00 0.00 67 1021.7
20260506160256 63 192 1.0 4.0 0.00 0.00 0.00 68 1021.5
20260506155755 63 212 3.0 3.0 0.00 0.00 0.00 69 1021.6
20260506155251 62 212 0.0 3.0 0.00 0.00 0.00 69 1021.4
20260506153358 62 221 1.0 1.0 0.00 0.00 0.00 67 1021.5
20260506152855 61 218 1.0 2.0 0.00 0.00 0.00 68 1021.7
20260506152352 61 209 1.0 3.0 0.00 0.00 0.00 70 1021.6
20260506151851 61 74 2.0 4.0 0.00 0.00 0.00 69 1021.6
20260506151347 60 185 1.0 7.0 0.00 0.00 0.00 70 1021.5
20260506150845 60 62 5.0 7.0 0.00 0.00 0.00 69 1021.7
20260506150341 60 211 1.0 2.0 0.00 0.00 0.00 71 1021.7
20260506145838 59 204 1.0 6.0 0.00 0.00 0.00 72 1021.6
20260506145334 59 100 2.0 4.0 0.00 0.00 0.00 71 1021.6
20260506144832 59 213 1.0 6.0 0.00 0.00 0.00 72 1021.4
20260506144328 59 116 1.0 2.0 0.00 0.00 0.00 73 1021.5
20260506143827 58 193 3.0 4.0 0.00 0.00 0.00 73 1021.3
20260506143323 58 81 2.0 3.0 0.00 0.00 0.00 73 1021.1
20260506142822 58 35 4.0 6.0 0.00 0.00 0.00 73 1021.4
20260506142319 58 182 1.0 2.0 0.00 0.00 0.00 74 1021.1
20260506141817 57 137 3.0 3.0 0.00 0.00 0.00 75 1021.1
20260506141315 56 114 1.0 2.0 0.00 0.00 0.00 77 1021.3
20260506140813 56 209 1.0 1.0 0.00 0.00 0.00 78 1020.9
20260506140309 55 209 0.0 2.0 0.00 0.00 0.00 79 1021.0
20260506135806 55 179 0.0 1.0 0.00 0.00 0.00 78 1021.1
20260506135305 54 196 0.0 2.0 0.00 0.00 0.00 81 1021.0
20260506134759 54 200 1.0 2.0 0.00 0.00 0.00 80 1021.0
20260506134256 55 214 1.0 2.0 0.00 0.00 0.00 81 1021.1
20260506133753 54 21 3.0 3.0 0.00 0.00 0.00 82 1021.0
20260506133250 54 237 1.0 3.0 0.00 0.00 0.00 82 1021.0
20260506132746 54 344 2.0 3.0 0.00 0.00 0.00 82 1021.0
20260506132244 53 306 2.0 4.0 0.00 0.00 0.00 83 1021.0
20260506131742 53 340 2.0 3.0 0.00 0.00 0.00 84 1020.9
20260506131237 53 229 2.0 2.0 0.00 0.00 0.00 85 1020.8
20260506130734 53 226 0.0 1.0 0.00 0.00 0.00 85 1020.7
20260506130231 53 288 1.0 3.0 0.00 0.00 0.00 84 1020.7
20260506125730 54 229 1.0 2.0 0.00 0.00 0.00 83 1020.6
20260506125227 54 271 2.0 3.0 0.00 0.00 0.00 82 1020.5
20260506124725 54 276 1.0 6.0 0.00 0.00 0.00 83 1020.6
20260506124223 54 304 1.0 2.0 0.00 0.00 0.00 84 1020.5
20260506123720 54 233 1.0 3.0 0.00 0.00 0.00 83 1020.5
20260506123218 55 206 2.0 3.0 0.00 0.00 0.00 83 1020.6
20260506122715 54 274 2.0 4.0 0.00 0.00 0.00 83 1020.5
20260506122212 54 66 1.0 3.0 0.00 0.00 0.00 83 1020.4
20260506121710 54 5 2.0 3.0 0.00 0.00 0.00 84 1020.3
20260506121206 54 4 2.0 3.0 0.00 0.00 0.00 85 1020.2
20260506120704 54 238 2.0 3.0 0.00 0.00 0.00 85 1020.3
20260506120201 54 286 1.0 3.0 0.00 0.00 0.00 86 1020.3
20260506115700 54 359 2.0 3.0 0.00 0.00 0.00 86 1020.1
20260506115158 54 357 2.0 3.0 0.00 0.00 0.00 86 1020.3
20260506114654 54 322 2.0 3.0 0.00 0.00 0.00 86 1020.2
20260506114152 54 101 3.0 4.0 0.00 0.00 0.00 85 1020.1
20260506113651 54 346 2.0 4.0 0.00 0.00 0.00 85 1020.2
20260506113148 54 353 4.0 6.0 0.00 0.00 0.00 85 1020.1
20260506112643 54 261 2.0 2.0 0.00 0.00 0.00 85 1020.1
20260506112142 55 255 2.0 3.0 0.00 0.00 0.00 84 1020.1
20260506111639 55 310 3.0 3.0 0.00 0.00 0.00 84 1020.2
20260506111136 55 240 1.0 3.0 0.00 0.00 0.00 85 1020.1
20260506110634 55 269 2.0 2.0 0.00 0.00 0.00 85 1020.3
20260506110131 55 197 1.0 3.0 0.00 0.00 0.00 84 1020.2
20260506105627 55 309 2.0 4.0 0.00 0.00 0.00 84 1020.2
20260506105124 55 336 3.0 3.0 0.00 0.00 0.00 84 1020.2
20260506104623 55 208 3.0 3.0 0.00 0.00 0.00 85 1020.0
20260506104120 55 330 2.0 3.0 0.00 0.00 0.00 86 1020.0
20260506103617 54 280 2.0 3.0 0.00 0.00 0.00 86 1020.1
20260506103114 54 89 2.0 3.0 0.00 0.00 0.00 87 1019.9
20260506102612 54 326 1.0 2.0 0.00 0.00 0.00 87 1020.0
20260506102109 53 330 3.0 3.0 0.00 0.00 0.00 88 1020.0
20260506101606 53 254 2.0 4.0 0.00 0.00 0.00 88 1020.1
20260506101103 54 0 2.0 3.0 0.00 0.00 0.00 87 1020.1
20260506100601 54 246 2.0 2.0 0.00 0.00 0.00 86 1020.1
20260506100059 54 172 0.0 1.0 0.00 0.00 0.00 86 1020.1
20260506095557 55 245 2.0 3.0 0.00 0.00 0.00 86 1020.1
20260506095053 55 15 2.0 6.0 0.00 0.00 0.00 85 1020.1
20260506094551 55 330 4.0 7.0 0.00 0.00 0.00 85 1020.0
20260506094049 55 338 3.0 3.0 0.00 0.00 0.00 86 1020.1
20260506093547 55 345 2.0 4.0 0.00 0.00 0.00 86 1020.2
20260506093044 55 156 2.0 3.0 0.00 0.00 0.00 86 1020.3
20260506092542 55 262 2.0 3.0 0.00 0.00 0.00 86 1020.2
20260506092038 55 340 2.0 4.0 0.00 0.00 0.00 86 1020.2
20260506091537 55 111 2.0 4.0 0.00 0.00 0.00 86 1020.3
20260506091034 55 334 2.0 4.0 0.00 0.00 0.00 86 1020.3
20260506090532 55 25 2.0 4.0 0.00 0.00 0.00 86 1020.6
20260506090027 55 220 1.0 3.0 0.00 0.00 0.00 86 1020.5
20260506085524 55 332 3.0 4.0 0.00 0.00 0.00 86 1020.4
20260506085021 55 50 3.0 4.0 0.00 0.00 0.00 87 1020.5
20260506084518 55 267 2.0 4.0 0.00 0.00 0.00 88 1020.3
20260506084014 55 307 3.0 4.0 0.00 0.00 0.00 88 1020.6
20260506083512 54 211 0.0 1.0 0.00 0.00 0.00 88 1020.5
20260506083009 54 221 2.0 3.0 0.00 0.00 0.00 88 1020.4
20260506082506 54 190 1.0 2.0 0.00 0.00 0.00 88 1020.4
20260506082001 55 192 1.0 2.0 0.00 0.00 0.00 88 1020.5
20260506081500 55 147 2.0 4.0 0.00 0.00 0.00 88 1020.5
20260506080957 55 310 3.0 3.0 0.00 0.00 0.00 88 1020.4
20260506080454 55 213 1.0 3.0 0.00 0.00 0.00 89 1020.5
20260506073437 55 335 3.0 6.0 0.00 0.00 0.00 89 1020.5
20260506072935 55 149 2.0 4.0 0.00 0.00 0.00 89 1020.5
20260506072432 55 177 1.0 6.0 0.00 0.00 0.00 89 1020.3
20260506071930 55 211 0.0 2.0 0.00 0.00 0.00 89 1020.3
20260506071427 55 166 2.0 4.0 0.00 0.00 0.00 89 1020.3
20260506070924 54 213 1.0 4.0 0.00 0.00 0.00 89 1020.2
20260506070421 54 219 1.0 3.0 0.00 0.00 0.00 89 1020.1
20260506062358 55 299 1.0 2.0 0.00 0.00 0.00 89 1019.8
20260506061854 55 156 1.0 1.0 0.00 0.00 0.00 89 1019.7
20260506061351 55 292 1.0 3.0 0.00 0.00 0.00 89 1019.6
20260506060849 55 192 1.0 2.0 0.00 0.00 0.00 89 1019.7
20260506060347 54 336 1.0 2.0 0.00 0.00 0.00 89 1019.6
20260506051318 55 246 2.0 2.0 0.00 0.00 0.00 90 1019.3
20260506050816 55 335 1.0 2.0 0.00 0.00 0.00 90 1019.6
20260506050314 55 201 0.0 2.0 0.00 0.00 0.00 90 1019.2
20260506044804 55 217 0.0 1.0 0.00 0.00 0.00 89 1019.4
20260506044301 55 207 1.0 2.0 0.00 0.00 0.00 89 1019.1
20260506043758 55 207 0.0 3.0 0.00 0.00 0.00 88 1019.1
20260506043256 56 209 1.0 2.0 0.00 0.00 0.00 88 1018.9
20260506042755 56 285 1.0 2.0 0.00 0.00 0.00 88 1019.0
20260506042253 55 216 0.0 1.0 0.00 0.00 0.00 88 1019.0
20260506041751 56 168 1.0 2.0 0.00 0.00 0.00 88 1018.9
20260506041248 55 213 0.0 6.0 0.00 0.00 0.00 87 1018.8
20260506040745 56 194 1.0 3.0 0.00 0.00 0.00 87 1018.7
20260506040242 56 97 2.0 3.0 0.00 0.00 0.00 87 1018.7
20260506035739 56 95 2.0 3.0 0.00 0.00 0.00 86 1018.4
20260506035236 57 232 1.0 2.0 0.00 0.00 0.00 85 1018.5
20260506034733 57 205 2.0 2.0 0.00 0.00 0.00 84 1018.3
20260506034230 57 199 0.0 1.0 0.00 0.00 0.00 83 1018.3
20260506033727 57 202 0.0 1.0 0.00 0.00 0.00 83 1018.3
20260506033224 57 207 0.0 0.0 0.00 0.00 0.00 83 1018.2
20260506032721 58 210 0.0 0.0 0.00 0.00 0.00 83 1018.1
20260506032218 58 205 0.0 2.0 0.00 0.00 0.00 81 1017.9
20260506031714 58 207 0.0 0.0 0.00 0.00 0.00 80 1017.8
20260506031212 58 203 0.0 2.0 0.00 0.00 0.00 80 1017.8
20260506030710 59 195 0.0 1.0 0.00 0.00 0.00 79 1017.6
20260506030207 59 206 0.0 0.0 0.00 0.00 0.00 79 1017.7
20260506025703 59 194 1.0 1.0 0.00 0.00 0.00 79 1017.5
20260506025200 59 207 0.0 0.0 0.00 0.00 0.00 78 1017.5
20260506024657 59 210 0.0 0.0 0.00 0.00 0.00 78 1017.3
20260506024154 59 209 0.0 1.0 0.00 0.00 0.00 78 1017.3
20260506023650 60 206 0.0 1.0 0.00 0.00 0.00 77 1017.3
20260506023147 60 209 0.0 1.0 0.00 0.00 0.00 77 1017.2
20260506022644 60 213 0.0 0.0 0.00 0.00 0.00 77 1017.1
20260506022142 60 214 0.0 1.0 0.00 0.00 0.00 76 1017.0
20260506021640 60 224 1.0 2.0 0.00 0.00 0.00 75 1017.0
20260506021136 61 219 1.0 3.0 0.00 0.00 0.00 75 1017.1
20260506020633 61 212 2.0 3.0 0.00 0.00 0.00 74 1016.9
20260506020131 61 208 1.0 2.0 0.00 0.00 0.00 74 1017.0
20260506015628 61 229 2.0 4.0 0.00 0.00 0.00 73 1017.0
20260506015125 62 220 2.0 2.0 0.00 0.00 0.00 73 1016.9
20260506014623 62 206 2.0 3.0 0.00 0.00 0.00 73 1016.7
20260506014118 63 163 2.0 4.0 0.00 0.00 0.00 71 1016.6